Flag for United Kingdom Weather past 2 weeks in Northampton, England, United Kingdom

Now
57 °F

Scattered clouds.


Feels Like: 56 °F
Forecast: 55 / 77 °F
Wind: 6 mph from Northwest

Location: Coventry Airport

Current Time: Jul 28, 2014 at 7:45:42 AM

Latest Report: Jul 28, 2014 at 6:50 AM


Visibility: N/A

Pressure: 30.01 "Hg

Humidity: 77%

Dew point: 50 °F

Location of NorthamptonLocation

Historic Weather in Northampton — Graph

°F

Northampton temperature yesterday

Maximum temperature yesterday: 75 °F (at 4:50 PM)
Minimum temperature yesterday: 64 °F (at 8:50 AM)
Average temperature yesterday: 71 °F

Past Weeks' High & Low Weather Summary

 TemperatureHumidityPressure
High82 °F (Jul 18, 3:50 PM)94% (Jul 16, 11:50 PM)30.24 "Hg (Jul 16, 11:50 PM)
Low52 °F (Jul 14, 6:50 AM)35% (Jul 26, 5:20 PM)29.59 "Hg (Jul 16, 8:50 AM)
Average71 °F62%30.02 "Hg
* Reported Jul 13 9:20 AM — Jul 28 6:20 AM, Northampton, Weather by CustomWeather, © 2014

Note: Actual official high and low records may vary slightly from our data, if they occured in-between our weather recording intervals... More about our weather records

Advertising

Northampton weather history for previous 24 hours

 ConditionsComfort  
Time TempWeatherWind HumidityBarometerVisibility
6:20 AM
Jul 28
57 °FScattered clouds.5 mph77%30.01 "HgN/A
6:50 PM
Jul 27
73 °FScattered clouds.9 mph41%29.98 "HgN/A
6:20 PM73 °FScattered clouds.10 mph38%29.98 "HgN/A
5:50 PM73 °FScattered clouds.8 mph38%30.01 "HgN/A
5:20 PM73 °FScattered clouds.8 mph38%30.01 "HgN/A
4:50 PM75 °FScattered clouds.9 mph39%30.01 "HgN/A
4:20 PM73 °FScattered clouds.10 mph41%30.01 "HgN/A
3:50 PM73 °FScattered clouds.9 mph44%30.01 "HgN/A
3:20 PM73 °FScattered clouds.6 mph44%30.04 "HgN/A
2:50 PM72 °FScattered clouds.9 mph47%30.04 "HgN/A
2:20 PM72 °FPassing clouds.8 mph47%30.04 "HgN/A
1:50 PM72 °FPassing clouds.5 mph47%30.04 "HgN/A
1:20 PM72 °FScattered clouds.12 mph47%30.04 "HgN/A
12:50 PM72 °FScattered clouds.8 mph47%30.07 "HgN/A
12:20 PM72 °FScattered clouds.9 mph50%30.07 "HgN/A
11:50 AM72 °FScattered clouds.9 mph47%30.07 "HgN/A
11:20 AM70 °FScattered clouds.10 mph50%30.07 "HgN/A
10:50 AM68 °FScattered clouds.10 mph56%30.07 "HgN/A
10:20 AM68 °FScattered clouds.12 mph56%30.07 "HgN/A
9:50 AM68 °FPassing clouds.10 mph60%30.07 "HgN/A
9:20 AM66 °FPassing clouds.10 mph64%30.07 "HgN/A
8:50 AM64 °FPassing clouds.12 mph68%30.07 "HgN/A
Weather by CustomWeather, © 2014

See weather overviewHow to use our weather pages